Probability
0 0 0 0 0 0 0 0 0 0 0 0 0 0 0 0 0 0 0 0 0 0 0 0 0 0 0 0 0 0 0 0 0 0 3 0 3 3 3 0 0 3 0
0 0 0 0 0 0 0 0 0 0 0 0 0 0 0 0 0 0 0 0 0 0 0 0 0 0 0 0 0 0 0 0 0 0 0 0 0 0 3 0 0 0 0
0 0 0 0 0 0 0 0 0 0 0 0 0 0 0 0 0 0 0 0 0 0 0 0 0 0 0 0 0 0 0 0 0 0 0 0 0 0 0 0 0 0 0
0 0 0 0 0 0 0 0 0 0 0 0 0 0 0 0 0 0 0 0 0 0 0 0 0 0 0 0 0 0 0 0 0 0 0 0 0 0 0 0 0 0 0
0 0 0 0 0 0 0 0 0 0 0 0 0 0 0 0 0 0 0 0 0 0 0 0 0 0 0 0 0 0 0 0 0 0 0 0 0 0 0 0 0 0 0
0 0 0 0 0 0 0 0 0 0 0 0 0 0 0 0 0 0 0 0 0 0 0 0 0 0 0 0 0 0 0 0 0 0 0 0 0 0 0 0 0 0 0
0 0 0 0 0 0 0 0 0 0 0 0 0 0 0 0 0 0 0 0 0 0 0 0 0 0 0 0 0 0 0 0 0 0 0 0 3 3 0 0 0 0 0
0 0 0 0 0 0 0 0 0 0 0 0 0 0 0 0 0 0 0 0 0 0 0 0 0 0 0 0 0 0 0 0 0 0 0 0 0 3 3 0 0 0 0
0 0 0 0 0 0 0 0 0 0 0 0 0 0 0 0 0 0 0 0 0 0 0 0 0 0 0 0 0 3 3 3 0 0 0 0 0 0 0 3 0 0 0
0 0 0 0 0 0 0 0 0 0 0 0 0 0 0 0 0 0 0 0 0 0 0 0 0 0 0 0 0 3 3 3 0 0 0 0 0 0 0 0 0 0 0
0 0 0 0 0 0 0 0 0 0 0 0 0 0 0 0 0 0 0 0 0 0 0 0 0 0 0 0 0 0 3 3 3 3 3 3 3 3 0 0 0 0 0
0 0 0 0 0 0 0 0 0 0 0 0 0 0 0 0 0 0 0 0 0 0 0 0 0 0 0 0 0 0 0 0 3 3 3 3 3 3 3 3 0 0 0
0 0 0 0 0 0 0 0 0 0 0 0 0 0 0 0 0 0 0 0 0 0 0 0 0 0 0 0 0 0 0 0 3 3 3 0 0 0 0 0 0 0 0
0 0 0 0 0 0 0 0 0 0 0 0 0 0 0 0 0 0 0 0 0 0 0 0 0 0 0 0 0 0 0 0 0 0 0 0 0 0 0 0 0 0 0
0 0 0 0 0 0 0 0 0 0 0 0 0 0 0 0 0 0 0 0 0 0 0 0 0 0 0 0 0 0 0 0 0 0 0 0 0 0 0 0 0 0 0
0 0 0 0 0 0 0 0 0 0 0 0 0 0 0 0 0 0 0 0 0 0 0 0 0 0 0 0 0 0 0 0 0 0 0 0 0 0 0 0 0 0 0
0 0 0 0 0 0 0 0 0 0 0 0 0 0 0 0 0 0 0 0 0 0 0 0 0 0 0 0 0 0 0 0 0 0 0 0 0 0 0 0 0 0 0
0 0 0 0 0 0 0 0 0 0 0 0 0 0 0 0 0 0 0 0 0 0 0 0 0 0 0 0 0 0 0 0 0 0 0 0 0 0 0 0 0 0 0
0 0 0 0 0 0 0 0 0 0 0 0 0 0 0 0 0 0 0 0 0 0 0 0 0 0 0 0 0 0 0 0 0 0 0 0 0 0 0 0 0 0 0
0 0 0 0 0 0 0 0 0 0 0 0 0 0 0 0 0 0 0 0 0 0 0 0 0 0 0 0 0 0 0 0 0 0 0 0 0 0 0 0 0 0 0
0 0 0 0 0 0 0 0 0 0 0 0 0 0 0 0 0 0 0 0 0 0 0 0 0 0 0 0 0 0 0 0 0 0 0 0 0 0 0 0 0 0 0
0 0 0 0 0 0 0 0 0 0 0 0 0 0 0 0 0 0 0 0 0 0 0 0 0 0 0 0 0 0 0 0 0 0 0 0 0 0 0 0 0 0 0
0 0 0 0 0 0 0 0 0 0 0 0 0 0 0 0 0 0 0 0 0 0 0 0 0 0 0 0 0 0 0 0 0 0 0 0 0 0 0 0 0 0 0
0 0 0 0 0 0 0 0 0 0 0 0 0 0 0 0 0 0 0 0 0 0 0 0 0 0 0 0 0 0 0 0 0 0 0 0 0 0 0 0 0 0 0
0 0 0 0 0 0 0 0 0 0 0 0 0 0 0 0 0 0 0 0 0 0 0 0 0 0 0 0 0 0 0 0 0 0 0 0 0 0 0 0 0 0 0
0 0 0 0 0 0 0 0 0 0 0 0 0 0 0 0 0 0 0 0 0 0 0 0 0 0 0 0 0 0 0 0 0 0 0 0 0 0 0 0 0 0 0
Height
5864 5864 5865 5865 5865 5866 5866 5866 5866 5865 5865 5864 5862 5861 5859 5857 5855 5853 5851 5849 5847 5844 5842 5840 5838 5836 5834 5833 5831 5830 5828 5828 5827 5827 5826 5826 5825 5825 5825 5825 5825 5825 5826
5863 5863 5863 5863 5864 5864 5864 5864 5863 5863 5862 5861 5860 5858 5856 5854 5852 5850 5848 5846 5844 5841 5839 5837 5834 5832 5830 5828 5826 5824 5823 5822 5821 5821 5820 5819 5819 5818 5818 5818 5818 5818 5819
5861 5861 5861 5861 5862 5862 5862 5861 5861 5860 5859 5857 5856 5855 5853 5851 5849 5847 5845 5842 5840 5837 5835 5832 5830 5827 5825 5822 5820 5818 5817 5815 5814 5813 5813 5812 5811 5811 5810 5810 5810 5810 5810
5859 5859 5859 5860 5860 5859 5859 5858 5857 5857 5855 5854 5852 5851 5849 5847 5845 5842 5840 5838 5835 5832 5830 5827 5824 5821 5819 5816 5814 5811 5809 5808 5806 5805 5804 5803 5802 5801 5801 5800 5800 5800 5801
5857 5857 5857 5857 5857 5856 5856 5855 5854 5853 5851 5850 5848 5846 5844 5842 5840 5838 5835 5833 5830 5827 5824 5821 5818 5814 5811 5809 5806 5804 5801 5799 5797 5795 5794 5793 5792 5791 5790 5790 5790 5790 5791
5855 5855 5855 5854 5853 5853 5852 5851 5850 5849 5847 5845 5843 5841 5839 5837 5834 5832 5829 5826 5823 5820 5817 5814 5810 5807 5804 5800 5797 5794 5792 5789 5787 5784 5782 5780 5779 5778 5777 5777 5777 5778 5779
5852 5851 5851 5850 5849 5849 5848 5846 5845 5844 5842 5840 5838 5836 5834 5831 5828 5826 5823 5819 5816 5813 5809 5805 5802 5798 5795 5791 5788 5785 5782 5778 5775 5772 5769 5767 5766 5765 5764 5764 5763 5764 5765
5848 5848 5847 5846 5845 5844 5843 5841 5840 5838 5837 5834 5832 5830 5827 5824 5822 5818 5815 5812 5808 5804 5800 5796 5792 5789 5785 5781 5778 5775 5771 5767 5763 5759 5757 5754 5753 5751 5750 5749 5749 5750 5751
5844 5843 5842 5841 5840 5839 5837 5836 5834 5832 5830 5828 5825 5823 5820 5817 5814 5810 5807 5803 5799 5795 5791 5787 5783 5779 5775 5771 5767 5763 5759 5755 5750 5747 5744 5741 5739 5737 5735 5734 5734 5734 5736
5839 5838 5837 5836 5834 5833 5831 5830 5828 5826 5823 5821 5818 5815 5812 5809 5805 5802 5798 5794 5790 5786 5782 5778 5773 5769 5765 5760 5755 5751 5747 5742 5738 5734 5730 5728 5725 5723 5721 5720 5719 5719 5719
5833 5832 5831 5830 5828 5827 5825 5822 5820 5818 5816 5813 5810 5807 5803 5800 5796 5792 5788 5784 5780 5776 5772 5768 5763 5758 5753 5748 5743 5738 5733 5729 5724 5720 5716 5713 5711 5708 5707 5705 5704 5703 5703
5827 5826 5824 5823 5821 5819 5817 5815 5812 5810 5807 5804 5801 5798 5794 5790 5787 5782 5778 5774 5769 5765 5761 5756 5752 5747 5741 5736 5731 5725 5720 5715 5710 5705 5701 5698 5695 5693 5691 5690 5688 5687 5687
5820 5818 5817 5815 5813 5811 5809 5807 5804 5801 5798 5795 5792 5789 5785 5781 5776 5772 5768 5763 5758 5754 5749 5745 5739 5734 5729 5723 5718 5712 5706 5700 5695 5691 5687 5683 5680 5677 5676 5674 5673 5671 5671
5812 5810 5809 5807 5805 5803 5800 5798 5795 5792 5789 5785 5782 5778 5775 5770 5766 5761 5757 5752 5747 5742 5737 5732 5727 5721 5715 5710 5704 5697 5691 5685 5680 5675 5671 5667 5664 5662 5660 5659 5657 5656 5655
5804 5802 5800 5798 5796 5793 5791 5788 5785 5782 5778 5775 5771 5768 5764 5760 5755 5749 5744 5740 5734 5729 5724 5719 5713 5708 5702 5695 5689 5682 5676 5670 5665 5660 5655 5652 5649 5646 5645 5643 5641 5640 5640
5794 5793 5791 5788 5786 5783 5781 5778 5775 5772 5768 5764 5760 5756 5751 5747 5742 5737 5732 5727 5721 5716 5710 5705 5699 5693 5687 5681 5674 5668 5661 5655 5649 5644 5640 5636 5633 5630 5628 5627 5625 5624 5623
5785 5783 5780 5778 5776 5773 5770 5767 5764 5761 5757 5753 5748 5744 5739 5734 5729 5724 5719 5714 5708 5702 5697 5691 5685 5678 5672 5665 5659 5652 5646 5639 5634 5628 5624 5620 5617 5614 5611 5610 5608 5607 5606
5774 5772 5769 5767 5764 5762 5759 5755 5752 5748 5745 5741 5736 5731 5727 5722 5716 5711 5705 5700 5695 5689 5682 5676 5670 5663 5656 5650 5643 5636 5629 5623 5617 5612 5607 5604 5600 5597 5595 5593 5591 5590 5589
5763 5761 5758 5756 5753 5750 5747 5743 5740 5736 5732 5728 5723 5718 5713 5708 5702 5697 5691 5686 5680 5674 5668 5661 5655 5648 5641 5634 5627 5620 5613 5607 5601 5595 5591 5587 5584 5581 5578 5576 5575 5573 5572
5752 5749 5746 5743 5740 5737 5734 5730 5727 5723 5718 5714 5709 5704 5699 5694 5688 5683 5677 5670 5664 5659 5652 5646 5639 5632 5625 5618 5611 5604 5597 5591 5585 5580 5575 5571 5568 5565 5562 5560 5559 5557 5556
5739 5737 5734 5730 5727 5724 5720 5717 5713 5709 5704 5700 5695 5689 5684 5679 5673 5668 5662 5655 5649 5642 5636 5629 5623 5616 5609 5602 5595 5589 5582 5576 5570 5565 5560 5556 5552 5549 5547 5545 5543 5542 5541
5725 5723 5720 5717 5713 5710 5706 5702 5698 5694 5689 5685 5680 5675 5669 5663 5658 5652 5646 5639 5633 5626 5619 5613 5607 5600 5593 5586 5580 5574 5567 5561 5555 5550 5545 5541 5537 5534 5532 5531 5529 5528 5527
5711 5708 5705 5702 5699 5695 5691 5687 5683 5679 5674 5669 5664 5658 5653 5647 5641 5635 5629 5622 5616 5609 5603 5596 5590 5584 5577 5570 5563 5558 5552 5546 5541 5536 5531 5527 5524 5521 5519 5518 5517 5516 5515
5695 5692 5689 5686 5683 5679 5675 5671 5667 5662 5658 5653 5647 5642 5636 5630 5624 5618 5612 5605 5599 5593 5586 5579 5573 5567 5561 5554 5548 5542 5537 5532 5527 5523 5519 5516 5513 5510 5508 5507 5506 5505 5504
5679 5676 5673 5669 5666 5663 5659 5655 5650 5646 5641 5636 5630 5625 5619 5613 5607 5601 5595 5588 5582 5575 5569 5562 5556 5551 5545 5539 5533 5529 5524 5519 5515 5510 5507 5504 5502 5500 5498 5497 5496 5495 5494
5662 5659 5656 5652 5649 5645 5642 5638 5633 5629 5624 5618 5613 5607 5601 5596 5590 5584 5578 5571 5565 5558 5552 5546 5540 5535 5530 5525 5520 5516 5511 5507 5503 5499 5496 5493 5491 5490 5488 5487 5486 5485 5484
Wind_Speed
6 6 6 5 4 4 5 6 7 8 10 10 11 12 13 14 14 15 16 16 16 16 16 16 16 16 16 15 16 16 17 18 18 19 19 20 21 21 22 22 22 24 25
5 6 6 5 5 6 7 8 9 10 11 12 13 14 14 15 16 16 17 17 17 18 18 18 18 18 18 18 19 19 20 20 21 21 22 23 24 25 25 25 25 25 26
6 7 7 7 7 8 9 10 11 12 13 14 14 15 16 17 17 18 18 18 19 20 20 20 20 21 21 21 21 22 22 23 23 23 24 25 26 27 27 27 27 27 27
7 8 8 8 8 9 10 11 12 14 15 15 16 17 18 18 19 19 20 20 21 22 22 23 23 23 24 24 24 24 25 25 25 26 26 27 28 29 30 30 30 29 29
9 9 9 10 10 11 11 13 14 15 16 17 18 19 20 20 21 21 22 23 24 24 25 26 26 26 27 27 27 27 28 28 28 29 30 31 31 32 33 33 33 33 33
11 11 12 12 13 13 14 15 16 17 18 18 19 20 22 23 24 24 25 26 26 27 28 29 29 29 29 29 30 30 31 31 32 33 34 34 34 34 34 35 35 35 36
12 13 14 14 15 15 16 17 18 19 19 20 21 22 24 25 26 26 27 28 29 30 30 31 31 31 31 32 32 33 33 34 35 36 36 35 35 35 36 37 37 37 37
15 14 15 16 16 17 18 19 20 22 23 23 25 26 26 27 28 29 30 30 31 32 33 33 33 33 33 34 34 35 36 37 38 38 37 36 36 36 37 38 38 39 39
16 17 17 18 18 20 21 22 23 24 26 27 28 28 29 29 31 32 32 33 34 34 34 34 35 35 36 37 37 38 38 39 39 39 39 38 38 39 39 39 39 40 40
18 18 19 20 21 23 24 25 26 27 28 29 30 30 31 32 34 35 35 36 36 36 35 36 37 38 39 39 40 41 41 40 41 41 41 40 40 41 40 41 41 41 42
21 22 22 23 25 26 27 28 29 30 31 31 32 33 34 35 36 37 38 38 38 38 38 38 40 41 41 42 42 43 43 43 43 43 42 42 43 43 42 42 42 43 43
24 25 26 27 28 29 30 31 32 32 33 33 34 35 36 37 38 39 39 39 40 40 40 41 42 43 43 43 45 45 45 45 45 44 44 44 44 44 43 43 43 44 44
26 28 28 29 30 31 32 33 33 34 35 35 36 37 38 39 40 41 41 41 42 42 43 44 44 45 45 46 47 47 48 47 47 46 46 45 45 44 43 43 43 43 44
29 30 31 32 33 34 34 35 36 36 37 37 38 39 40 41 42 43 43 44 44 45 46 46 46 47 48 49 49 49 50 49 48 47 46 46 45 44 44 45 44 44 43
31 32 33 34 35 36 37 37 38 38 39 40 40 41 42 43 44 45 46 46 47 47 48 48 48 49 50 51 51 51 50 48 48 48 47 47 46 45 45 45 46 46 45
33 34 35 36 37 38 38 38 39 40 41 41 42 43 44 45 46 47 47 48 48 48 49 49 50 51 52 52 52 52 51 50 49 48 47 47 46 46 46 46 46 47 46
35 36 37 37 38 39 39 40 40 41 42 43 44 45 46 47 48 48 48 49 49 50 50 51 52 52 53 52 52 52 52 51 50 50 48 48 48 48 47 47 47 47 47
37 38 38 39 39 40 41 42 42 43 44 45 46 47 48 49 50 50 50 50 50 51 52 53 53 54 54 53 54 54 53 52 52 51 50 49 49 48 48 48 47 46 47
37 39 40 40 41 42 42 43 44 45 46 47 48 50 51 51 51 51 51 52 53 53 54 54 55 55 55 55 55 54 53 53 51 50 49 49 48 47 47 47 46 45 46
39 40 42 43 43 44 45 46 47 48 49 50 51 52 52 53 52 53 54 55 55 55 56 56 56 56 56 55 55 54 53 52 50 49 48 48 48 47 46 45 44 44 44
43 43 44 45 46 47 47 48 49 50 50 51 52 53 54 54 54 55 55 56 57 57 57 57 56 56 55 55 55 54 52 51 49 48 47 47 47 45 44 43 42 41 41
45 46 47 47 47 48 49 50 51 51 52 53 54 55 55 56 56 57 57 58 58 58 58 57 56 56 56 55 55 54 52 51 49 47 46 44 43 42 41 40 39 39 38
47 48 48 49 49 50 51 51 52 53 54 55 56 57 57 57 58 58 59 59 58 58 58 58 57 56 56 55 54 52 50 48 46 44 42 39 37 36 36 36 35 35 35
50 50 51 52 52 53 53 54 54 55 56 57 58 58 58 58 59 59 59 58 58 58 58 58 56 55 54 53 51 48 46 44 42 40 38 37 35 34 33 33 34 34 34
52 53 53 54 54 54 55 56 56 57 58 58 59 59 59 59 59 58 58 58 58 57 57 56 54 53 51 49 47 44 42 41 40 39 38 35 34 33 33 32 31 31 31
53 54 54 55 55 56 56 57 58 59 59 60 60 60 59 58 58 57 57 57 57 56 55 53 50 48 47 45 43 42 41 40 39 38 36 34 32 31 31 31 30 29 29
Wind_Direction
248 251 259 262 264 278 294 301 307 312 317 325 331 332 333 334 333 332 333 332 332 332 331 329 326 322 316 311 305 299 293 289 286 282 279 277 275 273 271 269 268 262 258
250 252 257 257 266 279 292 301 305 310 315 318 320 322 324 325 326 326 327 328 327 327 327 326 323 320 316 311 307 304 298 292 287 284 281 278 277 276 274 274 272 266 260
254 254 257 262 272 281 291 299 304 307 310 311 314 316 318 320 321 321 321 322 322 322 322 321 319 317 314 310 307 303 299 295 290 286 283 281 278 277 276 275 273 268 264
257 256 262 268 277 286 293 297 301 305 308 310 312 314 315 317 317 317 318 317 317 317 317 317 316 314 311 308 305 303 300 296 292 289 286 283 280 278 276 274 271 267 264
258 260 265 272 279 284 291 297 299 302 306 309 311 312 313 315 315 315 314 313 313 313 313 313 312 311 309 307 305 303 301 298 294 291 288 285 282 278 275 272 270 266 265
263 268 273 278 281 283 288 295 299 301 302 305 308 310 312 313 313 312 311 311 311 310 310 310 310 309 307 305 304 302 300 298 295 293 290 286 282 279 275 272 270 267 265
266 271 277 280 283 285 289 294 296 299 302 304 306 308 310 311 311 310 310 309 309 309 310 310 309 307 306 305 303 301 300 298 296 294 291 287 283 279 276 274 272 269 265
271 276 282 283 283 287 291 294 297 299 301 303 304 306 308 308 309 309 309 308 308 309 309 308 307 306 304 304 303 302 300 298 297 294 291 287 284 281 278 275 273 270 267
274 279 282 285 287 290 293 295 297 298 299 301 303 304 305 306 307 308 307 307 307 308 307 306 305 305 304 303 303 302 301 299 297 294 291 288 285 282 280 276 274 272 269
275 279 283 287 290 292 294 295 296 297 299 300 301 302 303 304 306 307 306 306 306 306 305 304 304 304 304 303 303 302 300 298 297 295 292 288 285 282 279 277 275 273 271
277 280 283 287 290 291 293 294 295 296 297 298 299 301 302 303 304 305 306 306 305 305 304 304 304 304 303 302 302 301 300 299 297 294 291 288 285 282 279 277 276 274 272
279 282 284 287 289 292 293 294 295 295 295 296 298 300 301 302 304 304 305 305 304 304 304 304 304 303 303 302 302 301 299 299 297 294 290 287 285 281 278 277 275 274 272
280 282 285 286 289 291 292 294 294 294 296 297 298 300 301 302 303 304 304 303 303 303 303 304 303 303 302 302 302 300 299 298 296 294 291 287 284 280 277 277 276 273 272
281 283 285 286 288 290 291 293 294 295 296 298 299 300 301 302 303 303 303 303 303 304 304 304 303 303 302 302 302 300 300 298 296 293 291 288 284 280 277 277 276 273 271
282 283 285 287 289 290 291 292 293 294 296 298 299 300 301 301 302 303 303 303 303 304 304 304 304 303 303 303 302 301 300 298 296 294 291 288 284 280 277 276 275 272 270
283 284 285 287 289 291 292 293 294 295 296 297 298 299 300 301 302 303 303 303 304 304 304 305 305 304 304 303 302 301 300 298 296 295 292 289 285 281 278 276 276 274 272
284 285 287 289 290 291 292 293 294 295 296 297 298 299 300 301 302 302 303 304 304 304 304 305 305 304 304 303 302 301 300 298 296 294 291 289 286 283 280 278 277 275 273
285 286 288 289 290 292 292 293 294 294 295 296 298 299 299 301 302 302 303 303 304 304 304 304 305 304 304 303 302 302 300 299 297 294 290 288 286 284 281 278 276 275 273
286 287 288 289 290 291 292 293 293 294 295 296 298 298 299 301 301 302 302 303 303 303 304 304 304 304 304 303 302 302 301 299 297 295 291 288 286 284 282 279 277 276 274
286 287 288 288 289 290 291 292 293 294 295 296 297 298 299 300 301 301 302 302 302 303 304 304 304 303 303 303 302 302 301 300 299 295 291 289 286 284 281 278 276 276 274
285 286 288 289 289 290 291 292 293 294 295 296 297 298 299 300 300 301 301 301 302 302 303 303 303 303 303 303 302 302 301 300 298 296 292 289 287 284 281 277 275 274 273
284 285 287 288 289 291 291 292 292 294 295 296 297 298 299 299 300 301 301 301 301 302 302 303 303 303 303 302 301 301 299 298 297 296 294 291 287 283 279 277 274 274 274
284 285 287 288 289 290 291 292 292 293 294 295 297 298 298 299 300 300 301 301 301 301 302 302 302 302 301 301 300 299 298 298 297 296 294 291 287 282 279 276 274 274 273
285 286 286 287 288 289 290 291 292 293 294 296 297 298 298 299 299 300 301 301 301 302 301 301 301 301 301 301 300 299 298 297 296 295 293 291 287 282 280 277 274 273 272
284 285 286 287 288 289 289 290 291 293 294 296 297 298 298 298 299 300 301 301 302 302 302 301 300 300 301 300 299 297 296 296 294 293 292 289 285 281 279 277 276 274 271
284 284 285 286 287 288 289 290 291 293 294 296 296 297 298 298 299 300 301 301 302 302 301 301 300 300 300 298 297 296 295 295 293 292 290 287 283 280 278 276 274 272 269